START_TIME,STEP,MOV.,M35,t_acc.,PL05,t_acc.,PL06,t_acc.,PL07,t_acc.
1981-08-25 06:00:24.890 ,0,0,0.,4.8,1.,4.8,2.,4.8,0.,4.8
1981-08-25 06:00:29.690 ,0,0,0.,4.8,3.,4.8,0.,4.8,0.,4.8
1981-08-25 06:00:34.490 ,0,0,0.,4.8,2.,4.8,0.,4.8,0.,4.8
1981-08-25 06:00:39.290 ,0,0,0.,4.8,2.,4.8,0.,4.8,0.,4.8
1981-08-25 06:00:44.090 ,0,0,0.,4.8,2.,4.8,0.,4.8,1.,4.8
1981-08-25 06:00:53.090 ,0,0,,0,,0,,0,,0
1981-08-25 06:00:57.890 ,0,0,0.,4.8,3.,4.8,0.,4.8,0.,4.8
1981-08-25 06:01:02.690 ,0,0,0.,4.8,0.,4.8,0.,4.8,0.,4.8
1981-08-25 06:01:07.490 ,0,0,0.,4.8,1.,4.8,0.,4.8,0.,4.8
1981-08-25 06:01:12.290 ,0,0,0.,4.8,1.,4.8,0.,4.8,0.,4.8
1981-08-25 06:01:12.890 ,0,0,0.,4.8,1.,4.8,0.,4.8,0.,4.8
1981-08-25 06:01:17.690 ,0,0,0.,4.8,1.,4.8,0.,4.8,0.,4.8
1981-08-25 06:01:22.490 ,0,0,0.,4.8,0.,4.8,0.,4.8,0.,4.8
1981-08-25 06:01:27.290 ,0,0,0.,4.8,0.,4.8,0.,4.8,0.,4.8
1981-08-25 06:01:32.090 ,0,0,0.,4.8,2.,4.8,0.,4.8,0.,4.8
1981-08-25 06:01:36.890 ,2,0,0.,4.8,1.,4.8,0.,4.8,1.,4.8
1981-08-25 06:01:41.690 ,2,0,0.,4.8,1.,4.8,1.,4.8,0.,4.8
1981-08-25 06:01:46.490 ,2,0,0.,4.8,0.,4.8,0.,4.8,0.,4.8
1981-08-25 06:01:51.290 ,2,0,0.,4.8,0.,4.8,0.,4.8,0.,4.8
1981-08-25 06:01:56.090 ,2,0,0.,4.8,1.,4.8,3.,4.8,0.,4.8
1981-08-25 06:02:00.890 ,2,0,0.,4.8,3.,4.8,0.,4.8,0.,4.8
1981-08-25 06:02:05.690 ,2,0,0.,4.8,0.,4.8,1.,4.8,0.,4.8
1981-08-25 06:02:10.490 ,2,0,0.,4.8,2.,4.8,0.,4.8,0.,4.8
1981-08-25 06:02:15.290 ,2,0,0.,4.8,2.,4.8,0.,4.8,0.,4.8
1981-08-25 06:02:20.090 ,2,0,0.,4.8,3.,4.8,0.,4.8,0.,4.8
1981-08-25 06:02:24.890 ,3,0,0.,4.8,0.,4.8,0.,4.8,0.,4.8
1981-08-25 06:02:29.690 ,3,0,0.,4.8,1.,4.8,1.,4.8,0.,4.8
1981-08-25 06:02:34.490 ,3,0,0.,4.8,0.,4.8,1.,4.8,0.,4.8
1981-08-25 06:02:39.290 ,3,0,0.,4.8,3.,4.8,1.,4.8,0.,4.8
1981-08-25 06:02:44.090 ,3,0,0.,4.8,0.,4.8,0.,4.8,0.,4.8
1981-08-25 06:02:48.890 ,3,0,0.,4.8,3.,4.8,0.,4.8,0.,4.8
1981-08-25 06:02:53.690 ,3,0,0.,4.8,1.,4.8,1.,4.8,0.,4.8
1981-08-25 06:02:58.490 ,3,0,0.,4.8,1.,4.8,0.,4.8,0.,4.8
1981-08-25 06:03:03.290 ,3,0,0.,4.8,1.,4.8,0.,4.8,1.,4.8
1981-08-25 06:03:08.090 ,3,0,0.,4.8,2.,4.8,0.,4.8,0.,4.8
1981-08-25 06:03:12.890 ,4,0,0.,4.8,1.,4.8,0.,4.8,0.,4.8
1981-08-25 06:03:17.690 ,4,0,0.,4.8,1.,4.8,1.,4.8,0.,4.8
1981-08-25 06:03:22.490 ,4,0,0.,4.8,4.,4.8,1.,4.8,1.,4.8
1981-08-25 06:03:27.290 ,4,0,0.,4.8,6.,4.8,0.,4.8,0.,4.8
1981-08-25 06:03:32.090 ,4,0,0.,4.8,4.,4.8,0.,4.8,0.,4.8
1981-08-25 06:03:36.890 ,4,0,0.,4.8,3.,4.8,1.,4.8,0.,4.8
1981-08-25 06:03:41.690 ,4,0,0.,4.8,5.,4.8,0.,4.8,0.,4.8
1981-08-25 06:03:46.490 ,4,0,0.,4.8,6.,4.8,1.,4.8,0.,4.8
1981-08-25 06:03:51.290 ,4,0,0.,4.8,4.,4.8,0.,4.8,0.,4.8
1981-08-25 06:03:56.090 ,4,0,0.,4.8,3.,4.8,0.,4.8,0.,4.8
1981-08-25 06:04:00.890 ,5,0,0.,4.8,4.,4.8,0.,4.8,1.,4.8
1981-08-25 06:04:05.690 ,5,0,0.,4.8,4.,4.8,1.,4.8,0.,4.8
1981-08-25 06:04:10.490 ,5,0,0.,4.8,70.,4.8,2.,4.8,0.,4.8
1981-08-25 06:04:15.290 ,5,0,0.,4.8,78.,4.8,3.,4.8,1.,4.8
1981-08-25 06:04:20.090 ,5,0,0.,4.8,64.,4.8,5.,4.8,0.,4.8
1981-08-25 06:04:24.890 ,5,0,0.,4.8,72.,4.8,1.,4.8,1.,4.8
1981-08-25 06:04:29.690 ,5,0,0.,4.8,80.,4.8,1.,4.8,0.,4.8
1981-08-25 06:04:34.490 ,5,0,0.,4.8,98.,4.8,3.,4.8,0.,4.8
1981-08-25 06:04:39.290 ,5,0,0.,4.8,78.,4.8,1.,4.8,0.,4.8
1981-08-25 06:04:44.090 ,5,0,0.,4.8,72.,4.8,3.,4.8,0.,4.8
1981-08-25 06:04:48.890 ,6,0,0.,4.8,86.,4.8,1.,4.8,0.,4.8
1981-08-25 06:04:53.690 ,6,0,0.,4.8,84.,4.8,2.,4.8,1.,4.8
1981-08-25 06:04:58.490 ,6,0,0.,4.8,104.,4.8,4.,4.8,0.,4.8
1981-08-25 06:05:03.290 ,6,0,0.,4.8,94.,4.8,1.,4.8,0.,4.8
1981-08-25 06:05:08.090 ,6,0,0.,4.8,100.,4.8,4.,4.8,0.,4.8
1981-08-25 06:05:12.890 ,6,0,0.,4.8,110.,4.8,0.,4.8,0.,4.8
1981-08-25 06:05:17.690 ,6,0,0.,4.8,90.,4.8,2.,4.8,0.,4.8
1981-08-25 06:05:22.490 ,6,0,0.,4.8,102.,4.8,1.,4.8,1.,4.8
1981-08-25 06:05:27.290 ,6,0,0.,4.8,82.,4.8,4.,4.8,0.,4.8
1981-08-25 06:05:32.090 ,6,0,0.,4.8,102.,4.8,3.,4.8,0.,4.8
1981-08-25 06:05:36.890 ,7,0,0.,4.8,96.,4.8,3.,4.8,2.,4.8
1981-08-25 06:05:41.690 ,7,0,0.,4.8,74.,4.8,2.,4.8,1.,4.8
1981-08-25 06:05:46.490 ,7,0,0.,4.8,2.,4.8,1.,4.8,0.,4.8
1981-08-25 06:05:51.290 ,7,0,0.,4.8,0.,4.8,0.,4.8,0.,4.8
1981-08-25 06:05:56.090 ,7,0,0.,4.8,1.,4.8,0.,4.8,0.,4.8
1981-08-25 06:06:00.890 ,7,0,0.,4.8,0.,4.8,0.,4.8,0.,4.8
1981-08-25 06:06:05.690 ,7,0,0.,4.8,1.,4.8,0.,4.8,0.,4.8
1981-08-25 06:06:10.490 ,7,0,0.,4.8,0.,4.8,0.,4.8,0.,4.8
1981-08-25 06:06:15.290 ,7,0,0.,4.8,1.,4.8,0.,4.8,0.,4.8
1981-08-25 06:06:20.090 ,7,0,0.,4.8,0.,4.8,0.,4.8,0.,4.8
1981-08-25 06:06:24.890 ,7,0,0.,4.8,0.,4.8,0.,4.8,0.,4.8
1981-08-25 06:06:29.690 ,7,0,0.,4.8,1.,4.8,0.,4.8,1.,4.8
1981-08-25 06:06:34.490 ,7,0,0.,4.8,0.,4.8,0.,4.8,0.,4.8
1981-08-25 06:06:39.290 ,7,0,0.,4.8,1.,4.8,0.,4.8,0.,4.8
1981-08-25 06:06:44.090 ,7,0,0.,4.8,0.,4.8,0.,4.8,0.,4.8
1981-08-25 06:06:48.890 ,7,0,0.,4.8,0.,4.8,0.,4.8,0.,4.8
1981-08-25 06:06:53.690 ,7,0,0.,4.8,1.,4.8,0.,4.8,1.,4.8
1981-08-25 06:06:58.490 ,7,0,0.,4.8,0.,4.8,0.,4.8,0.,4.8
1981-08-25 06:07:03.290 ,7,0,0.,4.8,0.,4.8,1.,4.8,0.,4.8
1981-08-25 06:07:08.090 ,7,0,0.,4.8,1.,4.8,0.,4.8,0.,4.8
1981-08-25 06:07:12.890 ,6,0,0.,4.8,0.,4.8,0.,4.8,0.,4.8
1981-08-25 06:07:17.690 ,6,0,0.,4.8,1.,4.8,0.,4.8,0.,4.8
1981-08-25 06:07:22.490 ,6,0,0.,4.8,104.,4.8,4.,4.8,0.,4.8
1981-08-25 06:07:27.290 ,6,0,0.,4.8,88.,4.8,3.,4.8,0.,4.8
1981-08-25 06:07:32.090 ,6,0,0.,4.8,74.,4.8,2.,4.8,2.,4.8
1981-08-25 06:07:36.890 ,6,0,0.,4.8,84.,4.8,3.,4.8,0.,4.8
1981-08-25 06:07:41.690 ,6,0,0.,4.8,90.,4.8,0.,4.8,0.,4.8
1981-08-25 06:07:46.490 ,6,0,0.,4.8,90.,4.8,3.,4.8,0.,4.8
1981-08-25 06:07:51.290 ,6,0,0.,4.8,86.,4.8,3.,4.8,0.,4.8
1981-08-25 06:07:56.090 ,6,0,0.,4.8,94.,4.8,4.,4.8,0.,4.8
1981-08-25 06:08:00.890 ,5,0,0.,4.8,92.,4.8,0.,4.8,1.,4.8
1981-08-25 06:08:05.690 ,5,0,0.,4.8,98.,4.8,3.,4.8,0.,4.8
1981-08-25 06:08:10.490 ,5,0,0.,4.8,61.,4.8,2.,4.8,0.,4.8
1981-08-25 06:08:15.290 ,5,0,0.,4.8,76.,4.8,1.,4.8,0.,4.8
1981-08-25 06:08:20.090 ,5,0,0.,4.8,72.,4.8,1.,4.8,0.,4.8
1981-08-25 06:08:24.890 ,5,0,0.,4.8,68.,4.8,3.,4.8,0.,4.8
1981-08-25 06:08:29.690 ,5,0,0.,4.8,72.,4.8,1.,4.8,0.,4.8
1981-08-25 06:08:34.490 ,5,0,0.,4.8,68.,4.8,3.,4.8,0.,4.8
1981-08-25 06:08:39.290 ,5,0,0.,4.8,74.,4.8,1.,4.8,0.,4.8
1981-08-25 06:08:44.090 ,5,0,0.,4.8,78.,4.8,1.,4.8,1.,4.8
1981-08-25 06:08:48.890 ,4,0,0.,4.8,66.,4.8,0.,4.8,0.,4.8
1981-08-25 06:08:53.690 ,4,0,0.,4.8,60.,4.8,2.,4.8,0.,4.8
1981-08-25 06:08:58.490 ,4,0,0.,4.8,3.,4.8,1.,4.8,0.,4.8
1981-08-25 06:09:03.290 ,4,0,0.,4.8,3.,4.8,0.,4.8,0.,4.8
1981-08-25 06:09:08.090 ,4,0,0.,4.8,2.,4.8,0.,4.8,0.,4.8
1981-08-25 06:09:12.890 ,4,0,0.,4.8,3.,4.8,0.,4.8,0.,4.8
1981-08-25 06:09:17.690 ,4,0,0.,4.8,6.,4.8,0.,4.8,1.,4.8
1981-08-25 06:09:22.490 ,4,0,0.,4.8,4.,4.8,0.,4.8,0.,4.8
1981-08-25 06:09:27.290 ,4,0,0.,4.8,7.,4.8,0.,4.8,0.,4.8
1981-08-25 06:09:32.090 ,4,0,0.,4.8,2.,4.8,0.,4.8,0.,4.8
1981-08-25 06:09:36.890 ,3,0,0.,4.8,2.,4.8,0.,4.8,0.,4.8
1981-08-25 06:09:41.690 ,3,0,0.,4.8,8.,4.8,0.,4.8,1.,4.8
1981-08-25 06:09:46.490 ,3,0,0.,4.8,0.,4.8,1.,4.8,0.,4.8
1981-08-25 06:09:51.290 ,3,0,0.,4.8,0.,4.8,1.,4.8,0.,4.8
1981-08-25 06:09:56.090 ,3,0,0.,4.8,1.,4.8,0.,4.8,0.,4.8
1981-08-25 06:10:00.890 ,3,0,0.,4.8,1.,4.8,0.,4.8,0.,4.8
1981-08-25 06:10:05.690 ,3,0,0.,4.8,1.,4.8,0.,4.8,0.,4.8
1981-08-25 06:10:10.490 ,3,0,0.,4.8,0.,4.8,0.,4.8,0.,4.8
1981-08-25 06:10:15.290 ,3,0,0.,4.8,1.,4.8,0.,4.8,0.,4.8
1981-08-25 06:10:20.090 ,3,0,0.,4.8,4.,4.8,0.,4.8,0.,4.8
1981-08-25 06:10:24.890 ,2,0,0.,4.8,2.,4.8,0.,4.8,1.,4.8
1981-08-25 06:10:29.690 ,2,0,0.,4.8,2.,4.8,0.,4.8,0.,4.8
1981-08-25 06:10:34.490 ,2,0,0.,4.8,2.,4.8,0.,4.8,0.,4.8
1981-08-25 06:10:39.290 ,2,0,0.,4.8,0.,4.8,1.,4.8,1.,4.8
1981-08-25 06:10:44.090 ,2,0,0.,4.8,3.,4.8,0.,4.8,0.,4.8
1981-08-25 06:10:48.890 ,2,0,0.,4.8,1.,4.8,0.,4.8,0.,4.8
1981-08-25 06:10:53.690 ,2,0,0.,4.8,0.,4.8,0.,4.8,0.,4.8
1981-08-25 06:10:58.490 ,2,0,0.,4.8,0.,4.8,0.,4.8,0.,4.8
1981-08-25 06:11:03.290 ,2,0,0.,4.8,1.,4.8,0.,4.8,0.,4.8
1981-08-25 06:11:08.090 ,2,0,0.,4.8,2.,4.8,0.,4.8,0.,4.8
1981-08-25 06:11:12.890 ,1,0,0.,4.8,3.,4.8,0.,4.8,0.,4.8
1981-08-25 06:11:17.690 ,1,0,0.,4.8,0.,4.8,0.,4.8,0.,4.8
1981-08-25 06:11:22.490 ,1,0,0.,4.8,1.,4.8,1.,4.8,0.,4.8
1981-08-25 06:11:27.290 ,1,0,0.,4.8,1.,4.8,1.,4.8,0.,4.8
1981-08-25 06:11:32.090 ,1,0,0.,4.8,1.,4.8,1.,4.8,0.,4.8
1981-08-25 06:11:36.890 ,1,0,0.,4.8,5.,4.8,0.,4.8,0.,4.8
1981-08-25 06:11:41.690 ,1,0,0.,4.8,1.,4.8,0.,4.8,1.,4.8
1981-08-25 06:11:46.490 ,1,0,0.,4.8,0.,4.8,0.,4.8,0.,4.8
1981-08-25 06:11:51.290 ,1,0,0.,4.8,1.,4.8,0.,4.8,0.,4.8
1981-08-25 06:11:56.090 ,1,0,0.,4.8,3.,4.8,1.,4.8,0.,4.8
1981-08-25 06:12:00.890 ,0,0,0.,4.8,2.,4.8,2.,4.8,0.,4.8
1981-08-25 06:12:05.690 ,0,0,0.,4.8,1.,4.8,1.,4.8,0.,4.8
1981-08-25 06:12:10.490 ,0,0,0.,4.8,2.,4.8,0.,4.8,0.,4.8
1981-08-25 06:12:15.290 ,0,0,0.,4.8,2.,4.8,1.,4.8,0.,4.8
1981-08-25 06:12:20.090 ,0,0,0.,4.8,2.,4.8,0.,4.8,0.,4.8
1981-08-25 06:12:24.890 ,0,0,0.,4.8,4.,4.8,0.,4.8,0.,4.8
1981-08-25 06:12:29.690 ,0,0,0.,4.8,6.,4.8,1.,4.8,0.,4.8
1981-08-25 06:12:34.490 ,0,0,0.,4.8,2.,4.8,0.,4.8,0.,4.8
1981-08-25 06:12:39.290 ,0,0,0.,4.8,2.,4.8,2.,4.8,0.,4.8
1981-08-25 06:12:44.090 ,0,0,0.,4.8,3.,4.8,0.,4.8,0.,4.8
1981-08-25 06:12:48.890 ,0,0,0.,4.8,4.,4.8,0.,4.8,0.,4.8
1981-08-25 06:12:53.690 ,0,0,0.,4.8,2.,4.8,0.,4.8,0.,4.8
1981-08-25 06:12:58.490 ,0,0,0.,4.8,5.,4.8,0.,4.8,0.,4.8
1981-08-25 06:13:03.290 ,0,0,0.,4.8,1.,4.8,0.,4.8,0.,4.8
1981-08-25 06:13:08.090 ,0,0,0.,4.8,1.,4.8,0.,4.8,0.,4.8
1981-08-25 06:13:12.890 ,0,0,0.,4.8,3.,4.8,0.,4.8,1.,4.8
1981-08-25 06:13:17.690 ,0,0,0.,4.8,1.,4.8,0.,4.8,0.,4.8
1981-08-25 06:13:22.490 ,0,0,0.,4.8,3.,4.8,0.,4.8,0.,4.8
1981-08-25 06:13:27.290 ,0,0,0.,4.8,2.,4.8,0.,4.8,0.,4.8
1981-08-25 06:13:32.090 ,0,0,0.,4.8,1.,4.8,0.,4.8,0.,4.8
1981-08-25 06:13:36.890 ,1,0,0.,4.8,2.,4.8,1.,4.8,0.,4.8
1981-08-25 06:13:41.690 ,1,0,0.,4.8,2.,4.8,0.,4.8,0.,4.8
1981-08-25 06:13:46.490 ,1,0,0.,4.8,5.,4.8,1.,4.8,0.,4.8
1981-08-25 06:13:51.290 ,1,0,0.,4.8,3.,4.8,1.,4.8,2.,4.8
1981-08-25 06:13:56.090 ,1,0,0.,4.8,0.,4.8,0.,4.8,0.,4.8
1981-08-25 06:14:00.890 ,1,0,0.,4.8,3.,4.8,0.,4.8,0.,4.8
1981-08-25 06:14:05.690 ,1,0,0.,4.8,0.,4.8,1.,4.8,0.,4.8
1981-08-25 06:14:10.490 ,1,0,0.,4.8,0.,4.8,1.,4.8,0.,4.8
1981-08-25 06:14:15.290 ,1,0,0.,4.8,1.,4.8,1.,4.8,0.,4.8
1981-08-25 06:14:20.090 ,1,0,0.,4.8,1.,4.8,0.,4.8,0.,4.8
1981-08-25 06:14:24.890 ,2,0,0.,4.8,6.,4.8,0.,4.8,0.,4.8
1981-08-25 06:14:29.690 ,2,0,0.,4.8,1.,4.8,0.,4.8,0.,4.8
1981-08-25 06:14:34.490 ,2,0,0.,4.8,2.,4.8,0.,4.8,0.,4.8
1981-08-25 06:14:39.290 ,2,0,0.,4.8,0.,4.8,0.,4.8,0.,4.8
1981-08-25 06:14:44.090 ,2,0,0.,4.8,0.,4.8,0.,4.8,0.,4.8
1981-08-25 06:14:48.890 ,2,0,0.,4.8,0.,4.8,0.,4.8,0.,4.8
1981-08-25 06:14:53.690 ,2,0,0.,4.8,1.,4.8,0.,4.8,0.,4.8
1981-08-25 06:14:58.490 ,2,0,0.,4.8,2.,4.8,1.,4.8,0.,4.8
1981-08-25 06:15:03.290 ,2,0,0.,4.8,0.,4.8,0.,4.8,1.,4.8
1981-08-25 06:15:08.090 ,2,0,0.,4.8,0.,4.8,0.,4.8,0.,4.8
1981-08-25 06:15:12.890 ,3,0,0.,4.8,6.,4.8,0.,4.8,0.,4.8
1981-08-25 06:15:17.690 ,3,0,0.,4.8,2.,4.8,1.,4.8,0.,4.8
1981-08-25 06:15:22.490 ,3,0,0.,4.8,0.,4.8,0.,4.8,0.,4.8
1981-08-25 06:15:27.290 ,3,0,0.,4.8,3.,4.8,0.,4.8,0.,4.8
1981-08-25 06:15:32.090 ,3,0,0.,4.8,1.,4.8,0.,4.8,0.,4.8
1981-08-25 06:15:36.890 ,3,0,0.,4.8,1.,4.8,0.,4.8,0.,4.8
1981-08-25 06:15:41.690 ,3,0,0.,4.8,0.,4.8,0.,4.8,0.,4.8
1981-08-25 06:15:46.490 ,3,0,0.,4.8,1.,4.8,0.,4.8,0.,4.8
1981-08-25 06:15:51.290 ,3,0,0.,4.8,0.,4.8,0.,4.8,0.,4.8
1981-08-25 06:15:56.090 ,3,0,0.,4.8,2.,4.8,0.,4.8,0.,4.8
1981-08-25 06:16:00.890 ,4,0,0.,4.8,5.,4.8,0.,4.8,1.,4.8
1981-08-25 06:16:05.690 ,4,0,0.,4.8,3.,4.8,0.,4.8,0.,4.8
1981-08-25 06:16:10.490 ,4,0,0.,4.8,2.,4.8,0.,4.8,0.,4.8
1981-08-25 06:16:15.290 ,4,0,0.,4.8,5.,4.8,3.,4.8,0.,4.8
1981-08-25 06:16:20.090 ,4,0,0.,4.8,7.,4.8,0.,4.8,2.,4.8
1981-08-25 06:16:24.890 ,4,0,0.,4.8,5.,4.8,0.,4.8,0.,4.8
1981-08-25 06:16:29.690 ,4,0,0.,4.8,2.,4.8,0.,4.8,0.,4.8
1981-08-25 06:16:34.490 ,4,0,0.,4.8,3.,4.8,0.,4.8,0.,4.8
1981-08-25 06:16:39.290 ,4,0,0.,4.8,7.,4.8,2.,4.8,0.,4.8
1981-08-25 06:16:44.090 ,4,0,0.,4.8,5.,4.8,0.,4.8,0.,4.8
1981-08-25 06:16:48.890 ,5,0,0.,4.8,7.,4.8,0.,4.8,0.,4.8
1981-08-25 06:16:53.690 ,5,0,0.,4.8,10.,4.8,1.,4.8,0.,4.8
1981-08-25 06:16:58.490 ,5,0,0.,4.8,80.,4.8,0.,4.8,0.,4.8
1981-08-25 06:17:03.290 ,5,0,0.,4.8,74.,4.8,4.,4.8,0.,4.8
1981-08-25 06:17:08.090 ,5,0,0.,4.8,70.,4.8,3.,4.8,1.,4.8
1981-08-25 06:17:12.890 ,5,0,0.,4.8,86.,4.8,3.,4.8,0.,4.8
1981-08-25 06:17:17.690 ,5,0,0.,4.8,74.,4.8,2.,4.8,0.,4.8
1981-08-25 06:17:22.490 ,5,0,0.,4.8,80.,4.8,0.,4.8,0.,4.8
1981-08-25 06:17:27.290 ,5,0,0.,4.8,64.,4.8,4.,4.8,1.,4.8
1981-08-25 06:17:32.090 ,5,0,0.,4.8,72.,4.8,1.,4.8,0.,4.8
1981-08-25 06:17:36.890 ,6,0,0.,4.8,86.,4.8,2.,4.8,0.,4.8
1981-08-25 06:17:41.690 ,6,0,0.,4.8,74.,4.8,4.,4.8,1.,4.8
1981-08-25 06:17:46.490 ,6,0,0.,4.8,110.,4.8,2.,4.8,0.,4.8
1981-08-25 06:17:51.290 ,6,0,0.,4.8,76.,4.8,2.,4.8,0.,4.8
1981-08-25 06:17:56.090 ,6,0,0.,4.8,98.,4.8,1.,4.8,0.,4.8
1981-08-25 06:18:00.890 ,6,0,0.,4.8,90.,4.8,3.,4.8,0.,4.8
1981-08-25 06:18:05.690 ,6,0,0.,4.8,100.,4.8,2.,4.8,0.,4.8
1981-08-25 06:18:10.490 ,6,0,0.,4.8,78.,4.8,1.,4.8,0.,4.8
1981-08-25 06:18:15.290 ,6,0,0.,4.8,88.,4.8,1.,4.8,0.,4.8
1981-08-25 06:18:20.090 ,6,0,0.,4.8,98.,4.8,1.,4.8,0.,4.8
1981-08-25 06:18:24.890 ,7,0,0.,4.8,86.,4.8,2.,4.8,0.,4.8
1981-08-25 06:18:29.690 ,7,0,0.,4.8,98.,4.8,4.,4.8,0.,4.8
1981-08-25 06:18:34.490 ,7,0,0.,4.8,0.,4.8,0.,4.8,0.,4.8
1981-08-25 06:18:39.290 ,7,0,0.,4.8,0.,4.8,0.,4.8,0.,4.8
1981-08-25 06:18:44.090 ,7,0,0.,4.8,0.,4.8,0.,4.8,0.,4.8
1981-08-25 06:18:48.890 ,7,0,0.,4.8,1.,4.8,0.,4.8,0.,4.8
1981-08-25 06:18:53.690 ,7,0,0.,4.8,0.,4.8,0.,4.8,0.,4.8
1981-08-25 06:18:58.490 ,7,0,0.,4.8,1.,4.8,0.,4.8,0.,4.8
1981-08-25 06:19:03.290 ,7,0,0.,4.8,0.,4.8,0.,4.8,0.,4.8
1981-08-25 06:19:08.090 ,7,0,0.,4.8,1.,4.8,0.,4.8,0.,4.8
1981-08-25 06:19:12.890 ,7,0,0.,4.8,0.,4.8,0.,4.8,0.,4.8
1981-08-25 06:19:17.690 ,7,0,0.,4.8,0.,4.8,0.,4.8,1.,4.8
1981-08-25 06:19:22.490 ,7,0,0.,4.8,0.,4.8,1.,4.8,1.,4.8
1981-08-25 06:19:27.290 ,7,0,0.,4.8,0.,4.8,0.,4.8,0.,4.8
1981-08-25 06:19:32.090 ,7,0,0.,4.8,0.,4.8,0.,4.8,0.,4.8
1981-08-25 06:19:36.890 ,7,0,0.,4.8,0.,4.8,0.,4.8,0.,4.8
1981-08-25 06:19:41.690 ,7,0,0.,4.8,0.,4.8,0.,4.8,0.,4.8
1981-08-25 06:19:46.490 ,7,0,0.,4.8,0.,4.8,0.,4.8,0.,4.8
1981-08-25 06:19:51.290 ,7,0,0.,4.8,0.,4.8,0.,4.8,1.,4.8
1981-08-25 06:19:56.090 ,7,0,0.,4.8,1.,4.8,0.,4.8,0.,4.8
1981-08-25 06:20:00.890 ,6,0,0.,4.8,0.,4.8,0.,4.8,0.,4.8
1981-08-25 06:20:05.690 ,6,0,0.,4.8,4.,4.8,0.,4.8,0.,4.8
1981-08-25 06:20:10.490 ,6,0,0.,4.8,86.,4.8,1.,4.8,0.,4.8
1981-08-25 06:20:15.290 ,6,0,0.,4.8,92.,4.8,2.,4.8,0.,4.8
1981-08-25 06:20:20.090 ,6,0,0.,4.8,88.,4.8,1.,4.8,0.,4.8
1981-08-25 06:20:24.890 ,6,0,0.,4.8,104.,4.8,3.,4.8,0.,4.8
1981-08-25 06:20:29.690 ,6,0,0.,4.8,84.,4.8,1.,4.8,0.,4.8
1981-08-25 06:20:34.490 ,6,0,0.,4.8,86.,4.8,1.,4.8,1.,4.8
1981-08-25 06:20:39.290 ,6,0,0.,4.8,90.,4.8,3.,4.8,0.,4.8
1981-08-25 06:20:44.090 ,6,0,0.,4.8,100.,4.8,2.,4.8,0.,4.8
1981-08-25 06:20:48.890 ,5,0,0.,4.8,90.,4.8,2.,4.8,0.,4.8
1981-08-25 06:20:53.690 ,5,0,0.,4.8,84.,4.8,3.,4.8,0.,4.8
1981-08-25 06:20:58.490 ,5,0,0.,4.8,66.,4.8,1.,4.8,0.,4.8
1981-08-25 06:21:03.290 ,5,0,0.,4.8,72.,4.8,3.,4.8,0.,4.8
1981-08-25 06:21:08.090 ,5,0,0.,4.8,63.,4.8,0.,4.8,1.,4.8
1981-08-25 06:21:12.890 ,5,0,0.,4.8,72.,4.8,0.,4.8,0.,4.8
1981-08-25 06:21:17.690 ,5,0,0.,4.8,68.,4.8,2.,4.8,0.,4.8
1981-08-25 06:21:22.490 ,5,0,0.,4.8,74.,4.8,1.,4.8,1.,4.8
1981-08-25 06:21:27.290 ,5,0,0.,4.8,70.,4.8,2.,4.8,1.,4.8
1981-08-25 06:21:32.090 ,5,0,0.,4.8,76.,4.8,1.,4.8,0.,4.8
1981-08-25 06:21:36.890 ,4,0,0.,4.8,72.,4.8,0.,4.8,0.,4.8
1981-08-25 06:21:41.690 ,4,0,0.,4.8,70.,4.8,1.,4.8,0.,4.8
1981-08-25 06:21:46.490 ,4,0,0.,4.8,8.,4.8,1.,4.8,1.,4.8
1981-08-25 06:21:51.290 ,4,0,0.,4.8,8.,4.8,0.,4.8,0.,4.8
1981-08-25 06:21:56.090 ,4,0,0.,4.8,4.,4.8,0.,4.8,0.,4.8
1981-08-25 06:22:00.890 ,4,0,0.,4.8,4.,4.8,0.,4.8,0.,4.8
1981-08-25 06:22:05.690 ,4,0,0.,4.8,6.,4.8,1.,4.8,0.,4.8
1981-08-25 06:22:10.490 ,4,0,0.,4.8,7.,4.8,1.,4.8,0.,4.8
1981-08-25 06:22:15.290 ,4,0,0.,4.8,6.,4.8,1.,4.8,0.,4.8
1981-08-25 06:22:20.090 ,4,0,0.,4.8,5.,4.8,1.,4.8,0.,4.8
1981-08-25 06:22:24.890 ,3,0,0.,4.8,11.,4.8,1.,4.8,0.,4.8
1981-08-25 06:22:29.690 ,3,0,0.,4.8,12.,4.8,0.,4.8,0.,4.8
1981-08-25 06:22:34.490 ,3,0,0.,4.8,2.,4.8,0.,4.8,1.,4.8
1981-08-25 06:22:39.290 ,3,0,0.,4.8,2.,4.8,1.,4.8,0.,4.8
1981-08-25 06:22:44.090 ,3,0,0.,4.8,2.,4.8,1.,4.8,0.,4.8
1981-08-25 06:22:48.890 ,3,0,0.,4.8,1.,4.8,0.,4.8,0.,4.8
1981-08-25 06:22:53.690 ,3,0,0.,4.8,2.,4.8,0.,4.8,0.,4.8
1981-08-25 06:22:58.490 ,3,0,0.,4.8,0.,4.8,0.,4.8,0.,4.8
1981-08-25 06:23:03.290 ,3,0,0.,4.8,1.,4.8,0.,4.8,0.,4.8
1981-08-25 06:23:08.090 ,3,0,0.,4.8,0.,4.8,0.,4.8,0.,4.8
1981-08-25 06:23:12.890 ,2,0,0.,4.8,2.,4.8,1.,4.8,0.,4.8
1981-08-25 06:23:17.690 ,2,0,0.,4.8,1.,4.8,0.,4.8,1.,4.8
1981-08-25 06:23:22.490 ,2,0,0.,4.8,1.,4.8,0.,4.8,0.,4.8
1981-08-25 06:23:27.290 ,2,0,0.,4.8,0.,4.8,0.,4.8,0.,4.8
1981-08-25 06:23:32.090 ,2,0,0.,4.8,1.,4.8,0.,4.8,0.,4.8
1981-08-25 06:23:36.890 ,2,0,0.,4.8,1.,4.8,0.,4.8,0.,4.8
1981-08-25 06:23:41.690 ,2,0,0.,4.8,1.,4.8,0.,4.8,0.,4.8
1981-08-25 06:23:46.490 ,2,0,0.,4.8,0.,4.8,1.,4.8,0.,4.8
1981-08-25 06:23:51.290 ,2,0,0.,4.8,3.,4.8,2.,4.8,1.,4.8
1981-08-25 06:23:56.090 ,2,0,0.,4.8,1.,4.8,0.,4.8,0.,4.8
1981-08-25 06:24:00.890 ,1,0,0.,4.8,0.,4.8,1.,4.8,0.,4.8
1981-08-25 06:24:05.690 ,1,0,0.,4.8,0.,4.8,0.,4.8,0.,4.8
1981-08-25 06:24:10.490 ,1,0,0.,4.8,3.,4.8,0.,4.8,0.,4.8
1981-08-25 06:24:15.290 ,1,0,0.,4.8,0.,4.8,0.,4.8,0.,4.8
1981-08-25 06:24:20.090 ,1,0,0.,4.8,1.,4.8,0.,4.8,0.,4.8
1981-08-25 06:24:24.890 ,1,0,0.,4.8,1.,4.8,0.,4.8,0.,4.8
1981-08-25 06:24:29.690 ,1,0,0.,4.8,1.,4.8,0.,4.8,0.,4.8
1981-08-25 06:24:34.490 ,1,0,0.,4.8,1.,4.8,0.,4.8,0.,4.8
1981-08-25 06:24:39.290 ,1,0,0.,4.8,2.,4.8,1.,4.8,1.,4.8
1981-08-25 06:24:44.090 ,1,0,0.,4.8,0.,4.8,0.,4.8,0.,4.8
1981-08-25 06:24:48.890 ,0,0,0.,4.8,2.,4.8,0.,4.8,0.,4.8
1981-08-25 06:24:53.690 ,0,0,0.,4.8,1.,4.8,0.,4.8,0.,4.8
1981-08-25 06:24:58.490 ,0,0,0.,4.8,8.,4.8,0.,4.8,1.,4.8
1981-08-25 06:25:03.290 ,0,0,0.,4.8,9.,4.8,0.,4.8,0.,4.8
1981-08-25 06:25:08.090 ,0,0,0.,4.8,5.,4.8,1.,4.8,0.,4.8
1981-08-25 06:25:12.890 ,0,0,0.,4.8,16.,4.8,3.,4.8,0.,4.8
1981-08-25 06:25:17.690 ,0,0,0.,4.8,8.,4.8,0.,4.8,0.,4.8
1981-08-25 06:25:22.490 ,0,0,0.,4.8,10.,4.8,0.,4.8,0.,4.8
1981-08-25 06:25:27.290 ,0,0,0.,4.8,7.,4.8,0.,4.8,0.,4.8
1981-08-25 06:25:32.090 ,0,0,0.,4.8,6.,4.8,0.,4.8,0.,4.8
1981-08-25 06:25:36.890 ,0,0,0.,4.8,9.,4.8,1.,4.8,0.,4.8
1981-08-25 06:25:41.690 ,0,0,0.,4.8,10.,4.8,0.,4.8,0.,4.8
1981-08-25 06:25:46.490 ,0,0,0.,4.8,10.,4.8,0.,4.8,0.,4.8
1981-08-25 06:25:51.290 ,0,0,0.,4.8,11.,4.8,0.,4.8,0.,4.8
1981-08-25 06:25:56.090 ,0,0,0.,4.8,10.,4.8,0.,4.8,0.,4.8
1981-08-25 06:26:00.890 ,0,0,0.,4.8,5.,4.8,0.,4.8,0.,4.8
1981-08-25 06:26:05.690 ,0,0,0.,4.8,19.,4.8,0.,4.8,0.,4.8
1981-08-25 06:26:10.490 ,0,0,0.,4.8,12.,4.8,0.,4.8,0.,4.8
1981-08-25 06:26:15.290 ,0,0,0.,4.8,13.,4.8,1.,4.8,1.,4.8
1981-08-25 06:26:20.090 ,0,0,0.,4.8,12.,4.8,0.,4.8,0.,4.8
1981-08-25 06:26:24.890 ,1,0,0.,4.8,6.,4.8,0.,4.8,0.,4.8
1981-08-25 06:26:29.690 ,1,0,0.,4.8,19.,4.8,0.,4.8,0.,4.8
1981-08-25 06:26:34.490 ,1,0,0.,4.8,0.,4.8,0.,4.8,0.,4.8
1981-08-25 06:26:39.290 ,1,0,0.,4.8,2.,4.8,0.,4.8,0.,4.8
1981-08-25 06:26:44.090 ,1,0,0.,4.8,2.,4.8,1.,4.8,0.,4.8
1981-08-25 06:26:48.890 ,1,0,0.,4.8,2.,4.8,0.,4.8,0.,4.8
1981-08-25 06:26:53.690 ,1,0,0.,4.8,4.,4.8,1.,4.8,0.,4.8
1981-08-25 06:26:58.490 ,1,0,0.,4.8,0.,4.8,0.,4.8,0.,4.8
1981-08-25 06:27:03.290 ,1,0,0.,4.8,0.,4.8,0.,4.8,0.,4.8
1981-08-25 06:27:08.090 ,1,0,0.,4.8,2.,4.8,0.,4.8,0.,4.8
1981-08-25 06:27:12.890 ,2,0,0.,4.8,0.,4.8,0.,4.8,0.,4.8
1981-08-25 06:27:17.690 ,2,0,0.,4.8,2.,4.8,0.,4.8,0.,4.8
1981-08-25 06:27:22.490 ,2,0,0.,4.8,1.,4.8,0.,4.8,0.,4.8
1981-08-25 06:27:27.290 ,2,0,0.,4.8,1.,4.8,0.,4.8,1.,4.8
1981-08-25 06:27:32.090 ,2,0,0.,4.8,1.,4.8,0.,4.8,0.,4.8
1981-08-25 06:27:36.890 ,2,0,0.,4.8,0.,4.8,1.,4.8,0.,4.8
1981-08-25 06:27:41.690 ,2,0,0.,4.8,0.,4.8,0.,4.8,0.,4.8
1981-08-25 06:27:46.490 ,2,0,0.,4.8,0.,4.8,0.,4.8,1.,4.8
1981-08-25 06:27:51.290 ,2,0,0.,4.8,1.,4.8,1.,4.8,0.,4.8
1981-08-25 06:27:56.090 ,2,0,0.,4.8,2.,4.8,1.,4.8,1.,4.8
1981-08-25 06:28:00.890 ,3,0,0.,4.8,0.,4.8,1.,4.8,0.,4.8
1981-08-25 06:28:05.690 ,3,0,0.,4.8,0.,4.8,1.,4.8,0.,4.8
1981-08-25 06:28:10.490 ,3,0,0.,4.8,1.,4.8,0.,4.8,0.,4.8
1981-08-25 06:28:15.290 ,3,0,0.,4.8,0.,4.8,1.,4.8,0.,4.8
1981-08-25 06:28:20.090 ,3,0,0.,4.8,1.,4.8,0.,4.8,0.,4.8
1981-08-25 06:28:24.890 ,3,0,0.,4.8,3.,4.8,0.,4.8,0.,4.8
1981-08-25 06:28:29.690 ,3,0,0.,4.8,1.,4.8,1.,4.8,0.,4.8
1981-08-25 06:28:34.490 ,3,0,0.,4.8,1.,4.8,0.,4.8,0.,4.8
1981-08-25 06:28:39.290 ,3,0,0.,4.8,2.,4.8,0.,4.8,0.,4.8
1981-08-25 06:28:44.090 ,3,0,0.,4.8,1.,4.8,0.,4.8,0.,4.8
1981-08-25 06:28:48.890 ,4,0,0.,4.8,3.,4.8,1.,4.8,0.,4.8
1981-08-25 06:28:53.690 ,4,0,0.,4.8,3.,4.8,0.,4.8,1.,4.8
1981-08-25 06:28:58.490 ,4,0,0.,4.8,12.,4.8,1.,4.8,1.,4.8
1981-08-25 06:29:03.290 ,4,0,0.,4.8,6.,4.8,2.,4.8,0.,4.8
1981-08-25 06:29:08.090 ,4,0,0.,4.8,13.,4.8,0.,4.8,0.,4.8
1981-08-25 06:29:12.890 ,4,0,0.,4.8,12.,4.8,3.,4.8,0.,4.8
1981-08-25 06:29:17.690 ,4,0,0.,4.8,17.,4.8,0.,4.8,0.,4.8
1981-08-25 06:29:22.490 ,4,0,0.,4.8,16.,4.8,0.,4.8,0.,4.8
1981-08-25 06:29:27.290 ,4,0,0.,4.8,17.,4.8,1.,4.8,0.,4.8
1981-08-25 06:29:32.090 ,4,0,0.,4.8,6.,4.8,0.,4.8,3.,4.8
1981-08-25 06:29:36.890 ,5,0,0.,4.8,14.,4.8,1.,4.8,1.,4.8
1981-08-25 06:29:41.690 ,5,0,0.,4.8,15.,4.8,2.,4.8,1.,4.8
1981-08-25 06:29:46.490 ,5,0,0.,4.8,108.,4.8,1.,4.8,0.,4.8
1981-08-25 06:29:51.290 ,5,0,0.,4.8,76.,4.8,5.,4.8,0.,4.8
1981-08-25 06:29:56.090 ,5,0,0.,4.8,92.,4.8,1.,4.8,1.,4.8
1981-08-25 06:30:00.890 ,5,0,0.,4.8,102.,4.8,3.,4.8,0.,4.8
1981-08-25 06:30:05.690 ,5,0,0.,4.8,88.,4.8,1.,4.8,0.,4.8
1981-08-25 06:30:10.490 ,5,0,0.,4.8,80.,4.8,3.,4.8,0.,4.8
1981-08-25 06:30:15.290 ,5,0,0.,4.8,86.,4.8,1.,4.8,0.,4.8
1981-08-25 06:30:20.090 ,5,0,0.,4.8,94.,4.8,1.,4.8,2.,4.8
1981-08-25 06:30:24.890 ,6,0,0.,4.8,90.,4.8,6.,4.8,1.,4.8
1981-08-25 06:30:29.690 ,6,0,0.,4.8,100.,4.8,0.,4.8,1.,4.8
1981-08-25 06:30:34.490 ,6,0,0.,4.8,132.,4.8,6.,4.8,1.,4.8
1981-08-25 06:30:39.290 ,6,0,0.,4.8,128.,4.8,9.,4.8,4.,4.8
1981-08-25 06:30:44.090 ,6,0,0.,4.8,136.,4.8,9.,4.8,1.,4.8
1981-08-25 06:30:48.890 ,6,0,0.,4.8,136.,4.8,8.,4.8,0.,4.8
1981-08-25 06:30:53.690 ,6,0,2.,4.8,160.,4.8,6.,4.8,1.,4.8
1981-08-25 06:30:58.490 ,6,0,0.,4.8,140.,4.8,4.,4.8,1.,4.8
1981-08-25 06:31:03.290 ,6,0,0.,4.8,136.,4.8,2.,4.8,0.,4.8
1981-08-25 06:31:08.090 ,6,0,0.,4.8,128.,4.8,8.,4.8,1.,4.8
1981-08-25 06:30:24.890 ,6,0,0.,4.8,90.,4.8,6.,4.8,1.,4.8
1981-08-25 06:30:29.690 ,6,0,0.,4.8,100.,4.8,0.,4.8,1.,4.8
1981-08-25 06:30:34.490 ,6,0,0.,4.8,132.,4.8,6.,4.8,1.,4.8
1981-08-25 06:30:39.290 ,6,0,0.,4.8,128.,4.8,9.,4.8,4.,4.8
1981-08-25 06:30:44.090 ,6,0,0.,4.8,136.,4.8,9.,4.8,1.,4.8
1981-08-25 06:30:48.890 ,6,0,0.,4.8,136.,4.8,8.,4.8,0.,4.8
1981-08-25 06:30:53.690 ,6,0,2.,4.8,160.,4.8,6.,4.8,1.,4.8
1981-08-25 06:30:58.490 ,6,0,0.,4.8,140.,4.8,4.,4.8,1.,4.8
1981-08-25 06:31:03.290 ,6,0,0.,4.8,136.,4.8,2.,4.8,0.,4.8
1981-08-25 06:31:08.090 ,6,0,0.,4.8,128.,4.8,8.,4.8,1.,4.8
1981-08-25 06:31:12.890 ,7,0,0.,4.8,136.,4.8,9.,4.8,0.,4.8
1981-08-25 06:31:17.690 ,7,0,0.,4.8,132.,4.8,12.,4.8,0.,4.8
1981-08-25 06:31:22.490 ,7,0,0.,4.8,0.,4.8,0.,4.8,0.,4.8
1981-08-25 06:31:27.290 ,7,0,0.,4.8,0.,4.8,0.,4.8,0.,4.8
1981-08-25 06:31:32.090 ,7,0,0.,4.8,0.,4.8,1.,4.8,0.,4.8
1981-08-25 06:31:36.890 ,7,0,0.,4.8,1.,4.8,0.,4.8,0.,4.8
1981-08-25 06:31:41.690 ,7,0,0.,4.8,0.,4.8,0.,4.8,0.,4.8
1981-08-25 06:31:46.490 ,7,0,0.,4.8,0.,4.8,0.,4.8,0.,4.8
1981-08-25 06:31:51.290 ,7,0,0.,4.8,0.,4.8,1.,4.8,0.,4.8
1981-08-25 06:31:56.090 ,7,0,0.,4.8,0.,4.8,0.,4.8,0.,4.8
1981-08-25 06:32:00.890 ,7,0,0.,4.8,0.,4.8,0.,4.8,0.,4.8
1981-08-25 06:32:05.690 ,7,0,0.,4.8,1.,4.8,1.,4.8,0.,4.8
1981-08-25 06:32:10.490 ,7,0,0.,4.8,0.,4.8,0.,4.8,0.,4.8
1981-08-25 06:32:15.290 ,7,0,0.,4.8,0.,4.8,0.,4.8,0.,4.8
1981-08-25 06:32:20.090 ,7,0,0.,4.8,0.,4.8,0.,4.8,0.,4.8